Location: Unspecified
(0.0000°N, 0.0000°E)
Time: 01:12:26
(UTC+00:00)

OV3-3 - Visible Passes

Search period start: 10 December 2022 00:00
Search period end: 20 December 2022 00:00
Orbit: 339 x 2161 km, 81.4° (Epoch: 09 December)

Date Brightness Start Highest point End Pass type
(mag) Time Alt. Az. Time Alt. Az. Time Alt. Az.
10 Dec 11.3 19:39:05 10° WSW 19:43:12 12° W 19:47:05 10° WNW visible
11 Dec 11.3 19:38:33 10° WSW 19:40:36 11° W 19:42:35 10° W visible
17 Dec 7.4 05:26:37 10° NW 05:29:58 33° W 05:34:44 10° SSW visible
18 Dec 7.6 05:23:48 10° NW 05:27:11 30° WSW 05:31:58 10° SSW visible
19 Dec 7.8 05:20:59 10° NW 05:24:24 27° WSW 05:29:10 10° SSW visible
